QPF
0.01 0.01 0.01 0.01 0.01 0.01 0.01 0.01 0.02 0.02 0.02 0.02 0.02 0.02 0.02 0.02 0.02 0.02 0.03 0.03 0.04 0.05 0.05 0.06 0.07 0.10 0.09 0.06 0.05 0.05 0.07 0.09 0.09 0.09 0.06 0.04 0.02 0.03 0.03 0.03 0.03 0.03 0.03
0.01 0.01 0.01 0.01 0.01 0.01 0.00 0.01 0.01 0.01 0.01 0.01 0.02 0.02 0.02 0.02 0.02 0.02 0.02 0.03 0.06 0.10 0.11 0.07 0.07 0.09 0.07 0.06 0.06 0.07 0.08 0.08 0.06 0.06 0.05 0.03 0.03 0.02 0.02 0.02 0.02 0.02 0.02
0.01 0.02 0.01 0.01 0.00 0.01 0.01 0.01 0.01 0.00 0.00 0.01 0.01 0.01 0.01 0.01 0.01 0.02 0.03 0.05 0.07 0.08 0.06 0.04 0.04 0.04 0.04 0.04 0.04 0.05 0.05 0.04 0.04 0.05 0.04 0.03 0.03 0.02 0.02 0.01 0.01 0.02 0.01
0.02 0.02 0.01 0.01 0.01 0.01 0.01 0.01 0.01 0.01 0.01 0.01 0.01 0.01 0.01 0.01 0.01 0.03 0.06 0.06 0.03 0.03 0.02 0.01 0.01 0.02 0.03 0.03 0.03 0.03 0.04 0.05 0.05 0.05 0.05 0.04 0.04 0.03 0.02 0.01 0.02 0.02 0.02
0.01 0.01 0.01 0.01 0.01 0.01 0.00 0.00 0.00 0.00 0.00 0.01 0.01 0.02 0.02 0.01 0.02 0.04 0.04 0.02 0.02 0.02 0.01 0.01 0.01 0.02 0.02 0.02 0.02 0.04 0.05 0.05 0.05 0.04 0.04 0.04 0.04 0.04 0.02 0.02 0.03 0.03 0.02
0.00 0.01 0.01 0.01 0.01 0.00 0.00 0.01 0.00 0.00 0.00 0.01 0.01 0.01 0.01 0.01 0.01 0.01 0.01 0.02 0.02 0.02 0.02 0.02 0.03 0.02 0.02 0.02 0.03 0.03 0.03 0.04 0.05 0.05 0.05 0.04 0.05 0.05 0.04 0.03 0.04 0.05 0.06
0.00 0.01 0.00 0.00 0.01 0.01 0.01 0.01 0.01 0.01 0.01 0.01 0.01 0.01 0.01 0.01 0.01 0.02 0.01 0.01 0.01 0.02 0.02 0.02 0.02 0.03 0.03 0.02 0.02 0.02 0.01 0.02 0.02 0.02 0.04 0.04 0.04 0.04 0.04 0.03 0.03 0.04 0.04
0.01 0.02 0.02 0.02 0.02 0.02 0.02 0.03 0.03 0.02 0.01 0.01 0.01 0.01 0.02 0.02 0.02 0.02 0.01 0.01 0.01 0.01 0.01 0.01 0.01 0.01 0.01 0.01 0.01 0.01 0.00 0.01 0.01 0.01 0.01 0.02 0.03 0.04 0.04 0.03 0.03 0.03 0.03
0.01 0.02 0.02 0.02 0.02 0.02 0.02 0.03 0.03 0.02 0.02 0.01 0.01 0.01 0.02 0.02 0.02 0.01 0.01 0.00 0.00 0.00 0.00 0.00 0.01 0.00 0.01 0.01 0.01 0.01 0.00 0.01 0.01 0.01 0.01 0.01 0.01 0.01 0.01 0.02 0.02 0.03 0.04
0.01 0.02 0.02 0.02 0.02 0.01 0.01 0.02 0.02 0.03 0.02 0.02 0.01 0.01 0.01 0.01 0.02 0.01 0.01 0.01 0.01 0.00 0.01 0.00 0.01 0.00 0.00 0.01 0.01 0.01 0.01 0.01 0.01 0.01 0.01 0.01 0.01 0.01 0.01 0.01 0.02 0.03 0.05
0.03 0.02 0.02 0.02 0.02 0.01 0.02 0.02 0.02 0.02 0.02 0.02 0.02 0.01 0.01 0.02 0.02 0.02 0.02 0.01 0.01 0.01 0.01 0.00 0.01 0.01 0.00 0.01 0.01 0.01 0.01 0.01 0.01 0.01 0.01 0.02 0.01 0.01 0.01 0.01 0.02 0.02 0.03
0.05 0.04 0.03 0.02 0.01 0.01 0.02 0.02 0.02 0.02 0.01 0.01 0.02 0.03 0.03 0.02 0.02 0.02 0.03 0.02 0.02 0.02 0.01 0.01 0.01 0.01 0.01 0.01 0.01 0.01 0.01 0.01 0.02 0.03 0.03 0.03 0.03 0.03 0.03 0.03 0.03 0.03 0.03
0.04 0.04 0.03 0.02 0.02 0.02 0.02 0.02 0.02 0.02 0.02 0.03 0.03 0.03 0.03 0.02 0.03 0.03 0.03 0.03 0.03 0.02 0.02 0.02 0.02 0.02 0.01 0.01 0.01 0.01 0.01 0.01 0.02 0.02 0.03 0.03 0.03 0.03 0.03 0.03 0.02 0.02 0.02
0.03 0.02 0.03 0.03 0.03 0.03 0.03 0.03 0.03 0.03 0.03 0.02 0.03 0.03 0.04 0.04 0.03 0.03 0.03 0.02 0.03 0.03 0.02 0.02 0.02 0.02 0.01 0.01 0.01 0.01 0.01 0.01 0.01 0.01 0.01 0.01 0.01 0.01 0.01 0.01 0.01 0.01 0.01
0.05 0.05 0.04 0.04 0.05 0.06 0.08 0.08 0.07 0.06 0.05 0.04 0.04 0.03 0.03 0.04 0.04 0.03 0.02 0.02 0.02 0.02 0.02 0.02 0.02 0.02 0.02 0.01 0.01 0.01 0.01 0.01 0.01 0.01 0.01 0.01 0.01 0.01 0.01 0.01 0.01 0.01 0.01
0.04 0.05 0.05 0.05 0.05 0.05 0.05 0.05 0.05 0.05 0.05 0.05 0.06 0.06 0.05 0.04 0.04 0.03 0.02 0.02 0.02 0.02 0.02 0.02 0.02 0.02 0.03 0.03 0.03 0.03 0.02 0.01 0.01 0.01 0.01 0.01 0.00 0.01 0.01 0.01 0.01 0.01 0.01
0.02 0.03 0.03 0.03 0.03 0.03 0.03 0.03 0.04 0.04 0.05 0.05 0.05 0.06 0.06 0.06 0.05 0.03 0.02 0.02 0.03 0.03 0.03 0.03 0.03 0.02 0.02 0.03 0.04 0.04 0.03 0.01 0.00 0.00 0.00 0.00 0.00 0.01 0.01 0.01 0.01 0.01 0.01
0.02 0.02 0.03 0.03 0.03 0.03 0.04 0.04 0.04 0.03 0.04 0.04 0.05 0.05 0.05 0.05 0.04 0.04 0.04 0.03 0.03 0.03 0.02 0.02 0.02 0.03 0.03 0.03 0.03 0.02 0.02 0.01 0.01 0.00 0.00 0.00 0.01 0.01 0.01 0.01 0.01 0.01 0.01
0.03 0.02 0.02 0.03 0.04 0.04 0.04 0.04 0.04 0.03 0.03 0.02 0.02 0.03 0.03 0.03 0.03 0.03 0.02 0.02 0.02 0.02 0.02 0.02 0.02 0.02 0.02 0.02 0.02 0.02 0.02 0.03 0.02 0.02 0.01 0.01 0.01 0.01 0.01 0.01 0.01 0.01 0.01
0.04 0.04 0.03 0.03 0.03 0.03 0.03 0.03 0.03 0.03 0.03 0.02 0.01 0.01 0.02 0.02 0.02 0.01 0.01 0.01 0.01 0.02 0.02 0.01 0.01 0.00 0.00 0.00 0.01 0.01 0.01 0.01 0.01 0.01 0.01 0.01 0.01 0.01 0.01 0.01 0.01 0.01 0.01
0.04 0.04 0.05 0.04 0.03 0.03 0.03 0.03 0.03 0.03 0.02 0.02 0.02 0.01 0.01 0.02 0.02 0.01 0.01 0.01 0.01 0.01 0.01 0.00 0.00 0.00 0.00 0.00 0.01 0.01 0.01 0.01 0.01 0.01 0.01 0.01 0.01 0.01 0.01 0.01 0.01 0.01 0.01
0.04 0.04 0.05 0.05 0.04 0.04 0.04 0.03 0.02 0.02 0.02 0.01 0.01 0.01 0.01 0.00 0.01 0.01 0.01 0.01 0.01 0.00 0.00 0.00 0.00 0.00 0.00 0.00 0.01 0.01 0.01 0.01 0.01 0.01 0.01 0.01 0.01 0.01 0.01 0.01 0.01 0.01 0.02
0.05 0.05 0.05 0.04 0.03 0.02 0.02 0.02 0.01 0.01 0.01 0.01 0.01 0.00 0.00 0.00 0.00 0.01 0.01 0.01 0.01 0.01 0.01 0.00 0.00 0.01 0.01 0.01 0.01 0.01 0.01 0.01 0.01 0.01 0.01 0.01 0.01 0.01 0.01 0.01 0.01 0.01 0.01
0.04 0.04 0.04 0.03 0.03 0.02 0.02 0.02 0.02 0.02 0.02 0.01 0.01 0.01 0.00 0.00 0.00 0.01 0.01 0.01 0.01 0.01 0.01 0.00 0.01 0.01 0.01 0.01 0.01 0.01 0.01 0.01 0.01 0.01 0.01 0.01 0.01 0.01 0.01 0.01 0.01 0.01 0.01
0.06 0.04 0.03 0.03 0.03 0.03 0.03 0.03 0.03 0.03 0.02 0.02 0.02 0.01 0.01 0.01 0.00 0.01 0.01 0.01 0.01 0.01 0.01 0.00 0.01 0.01 0.01 0.01 0.01 0.01 0.01 0.01 0.01 0.01 0.01 0.01 0.01 0.01 0.00 0.00 0.00 0.00 0.01
0.06 0.06 0.05 0.04 0.03 0.03 0.03 0.04 0.03 0.03 0.03 0.02 0.02 0.02 0.01 0.01 0.01 0.01 0.01 0.01 0.00 0.00 0.00 0.00 0.00 0.00 0.00 0.00 0.01 0.01 0.02 0.01 0.01 0.01 0.01 0.01 0.01 0.01 0.00 0.00 0.00 0.00 0.00
MSLP
1009.67 1010.36 1011.02 1011.61 1012.10 1012.48 1012.77 1013.00 1013.20 1013.40 1013.65 1013.93 1014.27 1014.64 1015.01 1015.35 1015.65 1015.89 1016.07 1016.20 1016.29 1016.38 1016.49 1016.62 1016.78 1016.98 1017.17 1017.35 1017.48 1017.54 1017.50 1017.37 1017.13 1016.82 1016.43 1016.02 1015.61 1015.23 1014.91 1014.66 1014.49 1014.41 1014.39
1008.83 1009.55 1010.23 1010.85 1011.37 1011.78 1012.09 1012.33 1012.53 1012.74 1012.97 1013.26 1013.59 1013.97 1014.36 1014.73 1015.06 1015.33 1015.53 1015.68 1015.79 1015.87 1015.96 1016.08 1016.22 1016.40 1016.59 1016.79 1016.96 1017.07 1017.12 1017.07 1016.93 1016.70 1016.40 1016.05 1015.67 1015.30 1014.96 1014.67 1014.44 1014.28 1014.18
1007.96 1008.67 1009.37 1009.99 1010.53 1010.96 1011.29 1011.55 1011.77 1011.99 1012.24 1012.53 1012.88 1013.27 1013.67 1014.07 1014.43 1014.74 1014.98 1015.16 1015.28 1015.38 1015.48 1015.58 1015.72 1015.88 1016.07 1016.27 1016.45 1016.60 1016.69 1016.71 1016.65 1016.51 1016.29 1016.00 1015.69 1015.35 1015.02 1014.72 1014.45 1014.23 1014.05
1007.07 1007.75 1008.42 1009.03 1009.57 1010.01 1010.37 1010.66 1010.92 1011.17 1011.45 1011.76 1012.13 1012.54 1012.97 1013.39 1013.78 1014.12 1014.40 1014.62 1014.78 1014.90 1015.01 1015.13 1015.25 1015.41 1015.58 1015.77 1015.95 1016.11 1016.22 1016.29 1016.28 1016.21 1016.07 1015.87 1015.62 1015.34 1015.05 1014.76 1014.49 1014.23 1014.01
1006.18 1006.78 1007.40 1007.98 1008.51 1008.96 1009.34 1009.68 1009.98 1010.28 1010.61 1010.97 1011.37 1011.80 1012.25 1012.69 1013.10 1013.47 1013.78 1014.03 1014.23 1014.39 1014.52 1014.65 1014.78 1014.93 1015.09 1015.26 1015.42 1015.57 1015.70 1015.78 1015.82 1015.80 1015.73 1015.62 1015.45 1015.26 1015.03 1014.78 1014.53 1014.27 1014.02
1005.29 1005.80 1006.34 1006.87 1007.37 1007.82 1008.23 1008.61 1008.97 1009.33 1009.71 1010.11 1010.55 1011.00 1011.47 1011.92 1012.35 1012.73 1013.07 1013.35 1013.58 1013.78 1013.94 1014.10 1014.24 1014.39 1014.54 1014.69 1014.84 1014.97 1015.09 1015.18 1015.25 1015.29 1015.29 1015.26 1015.18 1015.08 1014.94 1014.76 1014.55 1014.32 1014.07
1004.45 1004.84 1005.28 1005.73 1006.18 1006.63 1007.05 1007.47 1007.88 1008.30 1008.73 1009.18 1009.64 1010.11 1010.58 1011.03 1011.46 1011.85 1012.20 1012.50 1012.77 1013.01 1013.22 1013.41 1013.58 1013.75 1013.90 1014.04 1014.17 1014.30 1014.41 1014.51 1014.60 1014.68 1014.75 1014.80 1014.83 1014.82 1014.77 1014.68 1014.54 1014.35 1014.12
1003.67 1003.93 1004.25 1004.61 1005.00 1005.41 1005.83 1006.26 1006.71 1007.17 1007.64 1008.11 1008.60 1009.07 1009.54 1009.98 1010.39 1010.78 1011.14 1011.47 1011.78 1012.06 1012.32 1012.56 1012.78 1012.98 1013.15 1013.30 1013.44 1013.56 1013.67 1013.78 1013.90 1014.03 1014.16 1014.28 1014.39 1014.48 1014.53 1014.52 1014.45 1014.32 1014.13
1002.99 1003.11 1003.29 1003.54 1003.84 1004.18 1004.57 1004.99 1005.45 1005.92 1006.41 1006.90 1007.39 1007.86 1008.31 1008.74 1009.15 1009.54 1009.91 1010.27 1010.62 1010.96 1011.29 1011.59 1011.87 1012.12 1012.33 1012.51 1012.66 1012.80 1012.92 1013.05 1013.19 1013.36 1013.54 1013.73 1013.91 1014.08 1014.21 1014.28 1014.28 1014.21 1014.07
1002.42 1002.39 1002.42 1002.54 1002.72 1002.98 1003.30 1003.68 1004.11 1004.57 1005.05 1005.54 1006.02 1006.48 1006.93 1007.35 1007.77 1008.17 1008.57 1008.98 1009.39 1009.80 1010.20 1010.58 1010.93 1011.24 1011.51 1011.73 1011.91 1012.06 1012.21 1012.35 1012.52 1012.71 1012.93 1013.16 1013.40 1013.63 1013.82 1013.95 1014.01 1014.00 1013.91
1001.96 1001.77 1001.65 1001.62 1001.67 1001.81 1002.03 1002.34 1002.72 1003.14 1003.59 1004.06 1004.53 1004.99 1005.44 1005.88 1006.32 1006.76 1007.22 1007.69 1008.18 1008.67 1009.16 1009.62 1010.06 1010.44 1010.76 1011.02 1011.23 1011.41 1011.57 1011.73 1011.90 1012.11 1012.34 1012.60 1012.87 1013.13 1013.35 1013.53 1013.63 1013.67 1013.62
1001.58 1001.25 1000.97 1000.78 1000.68 1000.69 1000.80 1001.01 1001.31 1001.68 1002.09 1002.54 1003.01 1003.48 1003.95 1004.43 1004.92 1005.43 1005.96 1006.52 1007.09 1007.68 1008.26 1008.81 1009.32 1009.76 1010.13 1010.43 1010.67 1010.86 1011.02 1011.18 1011.35 1011.55 1011.78 1012.04 1012.31 1012.58 1012.82 1013.02 1013.15 1013.22 1013.21
1001.26 1000.78 1000.36 1000.02 999.77 999.64 999.63 999.74 999.95 1000.26 1000.64 1001.07 1001.54 1002.04 1002.56 1003.10 1003.66 1004.26 1004.88 1005.54 1006.22 1006.90 1007.56 1008.19 1008.75 1009.24 1009.65 1009.97 1010.21 1010.40 1010.55 1010.70 1010.85 1011.03 1011.24 1011.48 1011.73 1011.98 1012.22 1012.42 1012.57 1012.67 1012.71
1000.93 1000.34 999.80 999.33 998.95 998.70 998.58 998.59 998.73 998.98 999.33 999.76 1000.25 1000.78 1001.36 1001.98 1002.63 1003.32 1004.04 1004.80 1005.56 1006.32 1007.06 1007.74 1008.34 1008.86 1009.27 1009.59 1009.82 1009.99 1010.12 1010.24 1010.36 1010.50 1010.68 1010.88 1011.11 1011.34 1011.57 1011.77 1011.93 1012.06 1012.14
1000.58 999.91 999.28 998.71 998.24 997.89 997.69 997.63 997.72 997.94 998.27 998.70 999.21 999.79 1000.43 1001.12 1001.86 1002.63 1003.44 1004.27 1005.10 1005.92 1006.69 1007.40 1008.01 1008.53 1008.93 1009.23 1009.44 1009.58 1009.67 1009.75 1009.83 1009.94 1010.07 1010.24 1010.44 1010.66 1010.87 1011.08 1011.26 1011.42 1011.55
1000.16 999.46 998.79 998.17 997.66 997.27 997.02 996.93 996.99 997.19 997.52 997.96 998.50 999.12 999.80 1000.54 1001.34 1002.16 1003.02 1003.89 1004.75 1005.59 1006.36 1007.06 1007.66 1008.15 1008.53 1008.79 1008.97 1009.07 1009.13 1009.18 1009.23 1009.30 1009.41 1009.56 1009.74 1009.95 1010.16 1010.39 1010.60 1010.80 1010.98
999.67 998.98 998.32 997.72 997.21 996.83 996.59 996.50 996.56 996.77 997.10 997.55 998.11 998.74 999.44 1000.19 1001.00 1001.83 1002.69 1003.55 1004.40 1005.20 1005.95 1006.61 1007.18 1007.63 1007.97 1008.21 1008.35 1008.43 1008.47 1008.50 1008.53 1008.59 1008.69 1008.83 1009.01 1009.22 1009.47 1009.72 1009.98 1010.23 1010.48
999.10 998.48 997.88 997.34 996.89 996.57 996.37 996.32 996.41 996.64 996.99 997.44 997.98 998.60 999.27 1000.00 1000.76 1001.55 1002.35 1003.15 1003.94 1004.68 1005.37 1005.97 1006.49 1006.90 1007.21 1007.43 1007.56 1007.64 1007.67 1007.70 1007.74 1007.81 1007.92 1008.07 1008.28 1008.52 1008.80 1009.10 1009.41 1009.73 1010.04
998.46 997.93 997.44 997.01 996.66 996.43 996.32 996.34 996.48 996.73 997.08 997.52 998.03 998.60 999.21 999.85 1000.52 1001.22 1001.92 1002.62 1003.31 1003.96 1004.57 1005.11 1005.58 1005.96 1006.25 1006.47 1006.61 1006.70 1006.77 1006.82 1006.89 1006.99 1007.13 1007.32 1007.56 1007.85 1008.18 1008.54 1008.92 1009.30 1009.68
997.74 997.34 996.97 996.68 996.47 996.35 996.34 996.44 996.63 996.91 997.27 997.68 998.13 998.62 999.13 999.66 1000.21 1000.77 1001.34 1001.91 1002.48 1003.04 1003.56 1004.04 1004.47 1004.84 1005.14 1005.37 1005.55 1005.69 1005.80 1005.91 1006.02 1006.17 1006.36 1006.59 1006.89 1007.23 1007.62 1008.04 1008.49 1008.94 1009.38
996.94 996.66 996.44 996.28 996.20 996.22 996.31 996.49 996.74 997.04 997.39 997.76 998.15 998.54 998.94 999.34 999.75 1000.17 1000.60 1001.04 1001.50 1001.95 1002.40 1002.84 1003.25 1003.62 1003.95 1004.23 1004.46 1004.67 1004.85 1005.02 1005.20 1005.40 1005.65 1005.94 1006.28 1006.67 1007.12 1007.60 1008.11 1008.62 1009.12
996.06 995.89 995.79 995.76 995.80 995.92 996.11 996.36 996.65 996.97 997.30 997.63 997.96 998.26 998.56 998.84 999.12 999.41 999.72 1000.05 1000.41 1000.79 1001.19 1001.60 1002.01 1002.41 1002.79 1003.13 1003.44 1003.72 1003.98 1004.23 1004.47 1004.74 1005.03 1005.37 1005.76 1006.20 1006.70 1007.23 1007.78 1008.34 1008.89
995.10 995.01 995.00 995.06 995.19 995.39 995.64 995.94 996.26 996.59 996.91 997.22 997.49 997.73 997.94 998.14 998.33 998.53 998.75 999.00 999.30 999.64 1000.03 1000.45 1000.88 1001.33 1001.77 1002.19 1002.58 1002.95 1003.28 1003.60 1003.91 1004.22 1004.56 1004.94 1005.36 1005.84 1006.36 1006.93 1007.51 1008.11 1008.68
994.09 994.04 994.07 994.18 994.36 994.60 994.89 995.21 995.55 995.88 996.20 996.49 996.74 996.95 997.12 997.28 997.42 997.58 997.77 997.99 998.28 998.62 999.02 999.47 999.96 1000.46 1000.98 1001.47 1001.95 1002.39 1002.80 1003.18 1003.54 1003.90 1004.27 1004.67 1005.11 1005.60 1006.14 1006.71 1007.32 1007.93 1008.52
993.09 993.04 993.07 993.18 993.37 993.61 993.90 994.22 994.57 994.90 995.22 995.52 995.77 995.99 996.17 996.34 996.49 996.66 996.87 997.12 997.43 997.81 998.25 998.75 999.30 999.88 1000.46 1001.04 1001.58 1002.10 1002.56 1002.99 1003.40 1003.78 1004.17 1004.58 1005.02 1005.51 1006.04 1006.61 1007.21 1007.82 1008.41
992.18 992.10 992.10 992.17 992.32 992.53 992.80 993.11 993.44 993.78 994.11 994.43 994.71 994.97 995.21 995.43 995.64 995.87 996.13 996.44 996.82 997.26 997.77 998.34 998.95 999.60 1000.25 1000.89 1001.51 1002.07 1002.59 1003.06 1003.49 1003.89 1004.28 1004.69 1005.11 1005.58 1006.09 1006.63 1007.21 1007.79 1008.36
Thickness
5788 5784 5781 5777 5774 5771 5768 5765 5763 5761 5759 5757 5755 5754 5752 5750 5748 5746 5744 5742 5740 5738 5736 5734 5732 5730 5730 5729 5727 5724 5721 5717 5709 5706 5704 5700 5695 5692 5690 5687 5685 5682 5679
5789 5784 5780 5777 5774 5771 5768 5765 5762 5759 5757 5755 5753 5751 5750 5747 5745 5742 5740 5738 5736 5733 5731 5729 5728 5727 5725 5724 5722 5720 5717 5713 5708 5700 5697 5694 5691 5688 5686 5683 5682 5679 5676
5790 5784 5780 5776 5772 5769 5767 5764 5761 5758 5755 5753 5751 5748 5746 5744 5741 5739 5736 5734 5732 5730 5728 5725 5724 5722 5720 5719 5717 5715 5713 5710 5706 5700 5695 5691 5688 5685 5681 5678 5676 5673 5671
5789 5783 5778 5775 5771 5768 5765 5762 5759 5756 5753 5750 5748 5745 5743 5741 5738 5736 5733 5730 5728 5726 5724 5722 5720 5718 5715 5714 5712 5709 5707 5704 5701 5697 5692 5688 5683 5679 5676 5673 5670 5668 5665
5786 5781 5777 5774 5770 5767 5763 5760 5757 5754 5751 5748 5745 5742 5740 5737 5735 5732 5730 5727 5723 5721 5719 5717 5715 5711 5708 5707 5707 5704 5701 5699 5697 5693 5688 5684 5679 5674 5671 5669 5665 5663 5659
5784 5779 5776 5772 5768 5764 5761 5758 5754 5751 5748 5744 5741 5739 5736 5733 5727 5725 5724 5722 5719 5716 5714 5712 5710 5706 5702 5698 5696 5693 5692 5691 5690 5687 5683 5678 5673 5670 5667 5664 5661 5658 5654
5782 5778 5774 5770 5766 5762 5759 5755 5751 5747 5744 5740 5737 5734 5730 5725 5721 5719 5717 5717 5715 5712 5709 5707 5706 5703 5699 5696 5692 5688 5685 5682 5680 5679 5677 5673 5668 5665 5661 5658 5654 5651 5647
5779 5775 5772 5768 5763 5759 5756 5751 5748 5744 5740 5737 5733 5730 5726 5720 5715 5713 5712 5712 5709 5705 5703 5701 5698 5695 5693 5690 5688 5685 5681 5677 5674 5672 5669 5666 5663 5659 5656 5653 5649 5645 5642
5775 5771 5768 5764 5760 5756 5752 5748 5744 5740 5736 5732 5729 5725 5721 5715 5710 5708 5707 5708 5704 5700 5697 5694 5692 5688 5682 5681 5680 5677 5674 5671 5666 5662 5659 5656 5653 5650 5648 5647 5644 5642 5638
5771 5768 5765 5761 5756 5752 5748 5744 5740 5736 5732 5728 5723 5720 5716 5711 5705 5703 5701 5705 5700 5696 5692 5688 5683 5680 5676 5674 5674 5671 5667 5665 5662 5659 5653 5650 5647 5644 5640 5639 5638 5636 5634
5766 5762 5759 5755 5751 5747 5743 5739 5734 5730 5726 5722 5718 5714 5710 5706 5700 5697 5695 5698 5696 5692 5689 5684 5679 5672 5669 5666 5666 5664 5660 5658 5657 5653 5650 5647 5643 5639 5636 5632 5629 5628 5625
5758 5754 5751 5748 5746 5741 5736 5732 5729 5724 5719 5715 5711 5708 5705 5700 5695 5691 5687 5686 5686 5685 5682 5679 5672 5665 5662 5659 5657 5654 5652 5650 5652 5649 5645 5641 5637 5633 5629 5625 5620 5617 5613
5751 5747 5742 5740 5737 5733 5728 5724 5721 5718 5716 5712 5707 5704 5699 5695 5689 5683 5680 5678 5676 5676 5673 5667 5662 5658 5655 5653 5648 5646 5646 5646 5645 5641 5637 5634 5631 5626 5622 5617 5613 5609 5605
5742 5739 5735 5731 5728 5725 5721 5719 5716 5712 5709 5706 5702 5698 5693 5689 5685 5680 5676 5673 5668 5667 5664 5658 5654 5651 5649 5646 5643 5642 5640 5638 5636 5633 5630 5627 5624 5620 5615 5611 5608 5604 5600
5733 5730 5727 5725 5722 5717 5713 5710 5708 5703 5701 5698 5697 5693 5688 5683 5676 5670 5670 5668 5667 5663 5658 5656 5653 5649 5646 5643 5639 5635 5633 5631 5627 5625 5622 5618 5615 5611 5607 5603 5599 5596 5592
5724 5721 5719 5717 5714 5711 5705 5699 5691 5691 5686 5684 5683 5681 5678 5672 5666 5661 5658 5656 5654 5650 5650 5650 5646 5644 5640 5636 5632 5628 5625 5623 5620 5617 5614 5610 5607 5603 5599 5595 5591 5587 5584
5717 5714 5712 5709 5706 5703 5699 5695 5689 5680 5675 5672 5670 5667 5664 5660 5657 5652 5648 5645 5643 5641 5643 5642 5638 5634 5631 5629 5626 5622 5618 5615 5612 5610 5606 5602 5599 5595 5591 5587 5582 5579 5575
5709 5705 5703 5700 5699 5697 5693 5689 5685 5679 5673 5668 5661 5656 5653 5650 5648 5643 5639 5637 5637 5635 5636 5634 5631 5627 5623 5620 5617 5614 5610 5607 5604 5600 5598 5595 5591 5587 5583 5579 5575 5569 5567
5701 5698 5694 5693 5691 5688 5685 5681 5678 5673 5669 5664 5658 5650 5644 5641 5638 5634 5631 5634 5634 5631 5628 5625 5623 5619 5616 5613 5609 5606 5603 5599 5595 5592 5589 5585 5582 5578 5575 5571 5568 5560 5558
5691 5687 5684 5684 5683 5680 5676 5673 5670 5665 5661 5657 5654 5648 5641 5638 5636 5631 5628 5629 5628 5625 5622 5618 5615 5612 5609 5605 5601 5599 5596 5592 5588 5585 5582 5578 5575 5571 5568 5563 5560 5557 5554
5684 5680 5675 5675 5674 5672 5669 5665 5661 5658 5654 5651 5647 5642 5635 5635 5633 5629 5626 5624 5621 5619 5615 5611 5608 5606 5603 5598 5595 5592 5589 5586 5582 5578 5575 5571 5568 5565 5561 5557 5554 5550 5546
5676 5673 5670 5668 5666 5663 5660 5657 5655 5651 5648 5644 5639 5633 5625 5628 5628 5625 5621 5617 5615 5612 5609 5605 5602 5599 5595 5592 5588 5585 5582 5579 5575 5570 5567 5564 5560 5557 5553 5549 5546 5542 5538
5667 5665 5662 5660 5657 5652 5650 5649 5647 5644 5641 5637 5633 5629 5623 5622 5620 5617 5614 5611 5607 5605 5602 5599 5595 5592 5588 5584 5580 5577 5574 5571 5567 5562 5559 5556 5553 5550 5546 5543 5539 5535 5532
5658 5656 5654 5652 5649 5646 5643 5641 5638 5636 5633 5629 5626 5622 5618 5613 5611 5609 5606 5603 5600 5597 5594 5591 5588 5584 5579 5575 5572 5569 5565 5561 5556 5554 5549 5547 5545 5543 5539 5535 5532 5529 5525
5649 5648 5647 5644 5640 5638 5635 5632 5630 5628 5625 5621 5618 5614 5610 5606 5603 5601 5598 5595 5592 5589 5586 5583 5580 5576 5572 5568 5565 5561 5555 5550 5547 5544 5541 5540 5538 5534 5531 5528 5525 5521 5518
5641 5640 5638 5636 5633 5630 5627 5625 5623 5620 5617 5614 5611 5607 5603 5600 5597 5594 5591 5588 5586 5582 5579 5576 5572 5569 5565 5561 5557 5552 5547 5543 5539 5536 5534 5533 5531 5528 5525 5522 5519 5515 5512